{"data":{"norad_id":56914,"epoch":"2026-09-19T18:18:02.936736Z","epoch_age_seconds":181864,"freshness":"STALE","line1":"1 56914U 23083AQ  26262.76253399  .00000713  00000+0  35447-4 0  9990","line2":"2 56914  43.0037  54.2630 0002115 266.2577  93.8033 15.27581040181489","mean_motion":15.2758104,"eccentricity":0.0002115,"inclination_deg":43.0037,"raan_deg":54.263,"arg_perigee_deg":266.2577,"mean_anomaly_deg":93.8033,"bstar":3.5447e-5,"rev_number":18148,"period_min":94.26668453544,"perigee_km":481.59484170661,"apogee_km":484.49712210796,"semimajor_km":6861.1829819073,"source":"CELESTRAK","updated_at":"2026-09-21T09:00:33.527797Z"}}